Météo par heure à Alho

Ce jour, 13 Mai, Jeudi

Heure Température Précipitation Vent Pression Humidité
00:00 +15°C° 0 mm 1 m/s 759 mmHg 79%
01:00 +15°C° 0 mm 1 m/s 758 mmHg 80%
02:00 +14°C° 0 mm 1 m/s 758 mmHg 81%
03:00 +14°C° 0 mm 2 m/s 758 mmHg 80%
04:00 +14°C° 0 mm 2 m/s 758 mmHg 79%
05:00 +14°C° 0 mm 2 m/s 758 mmHg 79%
06:00 +15°C° 0 mm 2 m/s 757 mmHg 72%
07:00 +17°C° 0 mm 3 m/s 757 mmHg 65%
08:00 +19°C° 0 mm 3 m/s 757 mmHg 59%
09:00 +20°C° 0 mm 3 m/s 757 mmHg 56%
10:00 +21°C° 0 mm 4 m/s 757 mmHg 53%
11:00 +22°C° 0 mm 4 m/s 757 mmHg 51%
12:00 +22°C° 0 mm 4 m/s 756 mmHg 51%
13:00 +21°C° 0 mm 4 m/s 756 mmHg 52%
14:00 +21°C° 0 mm 4 m/s 756 mmHg 53%
15:00 +21°C° 0 mm 4 m/s 756 mmHg 53%
16:00 +21°C° 0 mm 4 m/s 755 mmHg 54%
17:00 +20°C° 0 mm 3 m/s 755 mmHg 55%
18:00 +19°C° 0 mm 3 m/s 755 mmHg 62%
19:00 +17°C° 0 mm 2 m/s 754 mmHg 70%
20:00 +15°C° 0 mm 2 m/s 754 mmHg 77%
21:00 +14°C° 0 mm 1 m/s 754 mmHg 81%
22:00 +13°C° 0 mm 1 m/s 754 mmHg 85%
23:00 +12°C° 0 mm 1 m/s 754 mmHg 89%

Demain, 14 Mai, Vendredi

Heure Température Précipitation Vent Pression Humidité
00:00 +12°C° 0 mm 1 m/s 753 mmHg 90%
01:00 +12°C° 0 mm 1 m/s 753 mmHg 90%
02:00 +12°C° 0 mm 1 m/s 752 mmHg 91%
03:00 +12°C° 0 mm 1 m/s 752 mmHg 89%
04:00 +13°C° 0 mm 1 m/s 751 mmHg 88%
05:00 +13°C° 0 mm 1 m/s 751 mmHg 86%
06:00 +13°C° 1.4 mm 2 m/s 751 mmHg 89%
07:00 +13°C° 1.4 mm 2 m/s 750 mmHg 92%
08:00 +12°C° 1.4 mm 3 m/s 750 mmHg 95%
09:00 +11°C° 1.1 mm 3 m/s 751 mmHg 95%
10:00 +11°C° 1.1 mm 4 m/s 751 mmHg 95%
11:00 +11°C° 1.1 mm 4 m/s 751 mmHg 95%
12:00 +11°C° 0.4 mm 4 m/s 751 mmHg 95%
13:00 +11°C° 0.4 mm 3 m/s 751 mmHg 95%
14:00 +11°C° 0.4 mm 3 m/s 752 mmHg 95%
15:00 +11°C° 0.2 mm 3 m/s 752 mmHg 94%
16:00 +11°C° 0.2 mm 3 m/s 751 mmHg 94%
17:00 +11°C° 0.2 mm 3 m/s 751 mmHg 94%
18:00 +10°C° 0 mm 2 m/s 751 mmHg 94%
19:00 +10°C° 0 mm 2 m/s 751 mmHg 94%
20:00 +10°C° 0 mm 2 m/s 751 mmHg 93%
21:00 +10°C° 0.1 mm 2 m/s 751 mmHg 94%
22:00 +10°C° 0.1 mm 2 m/s 751 mmHg 95%
23:00 +10°C° 0.1 mm 2 m/s 751 mmHg 95%

Après-demain, 15 Mai, Samedi

Heure Température Précipitation Vent Pression Humidité
00:00 +9°C° 0 mm 2 m/s 751 mmHg 96%
01:00 +9°C° 0 mm 2 m/s 751 mmHg 96%
02:00 +9°C° 0 mm 1 m/s 751 mmHg 97%
03:00 +9°C° 0 mm 1 m/s 751 mmHg 96%
04:00 +10°C° 0 mm 1 m/s 750 mmHg 95%
05:00 +10°C° 0 mm 1 m/s 750 mmHg 95%
06:00 +12°C° 0 mm 1 m/s 750 mmHg 90%
07:00 +13°C° 0 mm 2 m/s 750 mmHg 86%
08:00 +15°C° 0 mm 2 m/s 750 mmHg 82%
09:00 +15°C° 0 mm 2 m/s 750 mmHg 81%
10:00 +14°C° 0 mm 2 m/s 750 mmHg 80%
11:00 +14°C° 0 mm 2 m/s 750 mmHg 80%
12:00 +15°C° 0 mm 2 m/s 749 mmHg 76%
13:00 +16°C° 0 mm 2 m/s 749 mmHg 72%
14:00 +17°C° 0 mm 2 m/s 749 mmHg 68%
15:00 +17°C° 0 mm 2 m/s 749 mmHg 68%
16:00 +18°C° 0 mm 2 m/s 748 mmHg 68%
17:00 +18°C° 0 mm 2 m/s 748 mmHg 67%
18:00 +16°C° 0 mm 2 m/s 748 mmHg 75%
19:00 +15°C° 0 mm 1 m/s 748 mmHg 83%
20:00 +13°C° 0 mm 1 m/s 748 mmHg 91%
21:00 +13°C° 0 mm 1 m/s 748 mmHg 92%
22:00 +12°C° 0 mm 1 m/s 747 mmHg 93%
23:00 +12°C° 0 mm 1 m/s 747 mmHg 94%

16 Mai, Dimanche

Heure Température Précipitation Vent Pression Humidité
00:00 +11°C° 0 mm 1 m/s 747 mmHg 95%
01:00 +11°C° 0 mm 1 m/s 747 mmHg 95%
02:00 +11°C° 0 mm 1 m/s 747 mmHg 95%
03:00 +11°C° 0 mm 1 m/s 748 mmHg 95%
04:00 +11°C° 0 mm 1 m/s 748 mmHg 95%
05:00 +11°C° 0 mm 1 m/s 748 mmHg 95%
06:00 +12°C° 0.1 mm 1 m/s 748 mmHg 91%
07:00 +13°C° 0.1 mm 1 m/s 748 mmHg 87%
08:00 +14°C° 0.1 mm 1 m/s 749 mmHg 83%
09:00 +15°C° 0 mm 1 m/s 749 mmHg 79%
10:00 +16°C° 0 mm 1 m/s 749 mmHg 74%
11:00 +18°C° 0 mm 1 m/s 750 mmHg 70%
12:00 +19°C° 0 mm 1 m/s 750 mmHg 68%
13:00 +19°C° 0 mm 1 m/s 750 mmHg 66%
14:00 +20°C° 0 mm 1 m/s 750 mmHg 64%
15:00 +19°C° 0.4 mm 1 m/s 751 mmHg 67%
16:00 +19°C° 0.4 mm 1 m/s 751 mmHg 70%
17:00 +19°C° 0.4 mm 1 m/s 751 mmHg 73%
18:00 +16°C° 0.3 mm 1 m/s 751 mmHg 77%
19:00 +15°C° 0.3 mm 1 m/s 752 mmHg 82%
20:00 +14°C° 0.3 mm 1 m/s 752 mmHg 86%
21:00 +13°C° 0.3 mm 1 m/s 752 mmHg 88%
22:00 +12°C° 0.3 mm 1 m/s 753 mmHg 89%
23:00 +11°C° 0.3 mm 1 m/s 753 mmHg 91%

17 Mai, Lundi

Heure Température Précipitation Vent Pression Humidité
00:00 +11°C° 0.1 mm 1 m/s 753 mmHg 92%
01:00 +10°C° 0.1 mm 1 m/s 754 mmHg 92%
02:00 +10°C° 0.1 mm 1 m/s 754 mmHg 93%
03:00 +10°C° 0 mm 1 m/s 754 mmHg 91%
04:00 +10°C° 0 mm 1 m/s 754 mmHg 90%
05:00 +11°C° 0 mm 1 m/s 754 mmHg 88%
06:00 +12°C° 0 mm 1 m/s 755 mmHg 81%
07:00 +14°C° 0 mm 1 m/s 755 mmHg 75%
08:00 +15°C° 0 mm 1 m/s 756 mmHg 68%
09:00 +16°C° 0 mm 2 m/s 756 mmHg 63%
10:00 +18°C° 0 mm 2 m/s 756 mmHg 57%
11:00 +19°C° 0 mm 2 m/s 756 mmHg 51%
12:00 +19°C° 0 mm 3 m/s 756 mmHg 52%
13:00 +19°C° 0 mm 3 m/s 756 mmHg 52%
14:00 +19°C° 0 mm 3 m/s 756 mmHg 52%
15:00 +18°C° 0 mm 3 m/s 756 mmHg 55%
16:00 +17°C° 0 mm 3 m/s 756 mmHg 58%
17:00 +17°C° 0 mm 3 m/s 755 mmHg 61%
18:00 +14°C° 0 mm 3 m/s 755 mmHg 65%
19:00 +13°C° 0 mm 3 m/s 755 mmHg 68%
20:00 +13°C° 0 mm 2 m/s 755 mmHg 72%
21:00 +12°C° 0 mm 3 m/s 754 mmHg 76%
22:00 +12°C° 0 mm 4 m/s 754 mmHg 80%
23:00 +12°C° 0 mm 4 m/s 754 mmHg 84%

18 Mai, Mardi

Heure Température Précipitation Vent Pression Humidité
00:00 +12°C° 0 mm 5 m/s 753 mmHg 86%
01:00 +10°C° 0 mm 5 m/s 753 mmHg 88%
02:00 +10°C° 0 mm 5 m/s 753 mmHg 90%
03:00 +10°C° 0 mm 6 m/s 752 mmHg 88%
04:00 +11°C° 0 mm 6 m/s 752 mmHg 86%
05:00 +11°C° 0 mm 6 m/s 751 mmHg 84%
06:00 +13°C° 0 mm 6 m/s 751 mmHg 82%
07:00 +14°C° 0 mm 6 m/s 751 mmHg 80%
08:00 +14°C° 0 mm 6 m/s 750 mmHg 78%
09:00 +16°C° 0.1 mm 6 m/s 750 mmHg 76%
10:00 +17°C° 0.1 mm 6 m/s 750 mmHg 74%
11:00 +19°C° 0.1 mm 6 m/s 750 mmHg 73%
12:00 +19°C° 0.4 mm 5 m/s 750 mmHg 77%
13:00 +18°C° 0.4 mm 4 m/s 750 mmHg 81%
14:00 +18°C° 0.4 mm 4 m/s 750 mmHg 85%
15:00 +17°C° 4.1 mm 3 m/s 750 mmHg 89%
16:00 +16°C° 4.1 mm 3 m/s 750 mmHg 93%
17:00 +15°C° 4.1 mm 2 m/s 749 mmHg 97%
18:00 +15°C° 1.2 mm 2 m/s 750 mmHg 97%
19:00 +15°C° 1.2 mm 2 m/s 750 mmHg 97%
20:00 +14°C° 1.2 mm 2 m/s 750 mmHg 96%
21:00 +14°C° 0 mm 2 m/s 750 mmHg 97%
22:00 +13°C° 0 mm 2 m/s 751 mmHg 97%
23:00 +12°C° 0 mm 2 m/s 751 mmHg 98%
Voir plus

Nous avons besoin de votre consentement

Meteoprog et ses fournisseurs de services peuvent stocker et accéder à des données personnelles telles que des cookies, des identifiants d'appareils ou d'autres technologies similaires sur votre appareil et traiter ces données pour personnaliser le contenu et les publicités, ainsi que pour fournir des fonctionnalités de médias sociaux et analyser le trafic.

  • Stocker et/ou accéder à des informations sur votre appareil

    Des cookies, des identifiants d'appareils ou d'autres informations peuvent être stockés ou accessibles sur votre appareil aux fins indiquées ci-dessus.

  • Annonces et contenus personnalisés, mesure des annonces et des contenus, connaissance de l'audience et développement de produits

    Les annonces et le contenu peuvent être personnalisés en fonction d'un profil. D'autres données peuvent être ajoutées pour mieux personnaliser les annonces et le contenu. Les performances des publicités et du contenu peuvent être mesurées. Il est possible d'obtenir des informations sur le public qui a vu les publicités et le contenu. Ces données peuvent être utilisées pour développer ou améliorer l'expérience de l'utilisateur, les systèmes et les logiciels.

En cliquant sur "J'accepte", vous autorisez l'utilisation de cookies, des identifiants d'appareils, des balises web ou d'autres technologies similaires. Vos paramètres peuvent être modifiés dans le navigateur de votre appareil.

Dans certains cas, des intérêts légitimes peuvent être invoqués plutôt qu'un consentement. Vous pouvez en savoir plus à ce sujet dans notre Politique de confidentialité et de cookies.